Location: Lalanga
(4.5882°N, 32.9072°E)
Time: 04:47:51
(UTC+00:00)

USA 215 - Pass Details

Date: 24 January 2020
Orbit: 1101 x 1107 km, 123.0° (Epoch: 06 February)

Event Time Altitude Azimuth Distance (km) Brightness Sun altitude
Exits shadow 18:03:18 66° 143° (SE) 1,191 3.2 -30.5°
Drops below altitude 10° 18:09:27 10° 208° (SSW) 2,955 6.0 -31.9°
Sets 18:11:57 0° 210° (SSW) 3,915 6.8 -32.5°
